Location: Mexico
(19.4000°N, 99.1500°W)
Time: 09:43:56
(UTC-06:00)

ISS - Pass Details

Date: 21 January 2018
Orbit: 402 x 407 km, 51.6° (Epoch: 23 January)

Event Time Altitude Azimuth Distance (km) Brightness Sun altitude
Rises 19:02:55 0° 208° (SSW) 2,297 0.8 -9.8°
Reaches altitude 10° 19:05:02 10° 203° (SSW) 1,440 -0.4 -10.2°
Maximum altitude 19:08:10 48° 127° (SE) 526 -3.5 -10.9°
Enters shadow 19:10:21 18° 57° (ENE) 1,076 -2.3 -11.4°
